Simultaneous Nadir Overpasses (SNOs) Predictions

Prediction of SNOs between GOES-15 and METOP-A Satellite Orbit:

Table of predicted SNOs for the next 14.0 days since TLE Epoch: 12/13/2016
Index Date Time (GOES-15) GOES-15 Lat,Lon METOP-A Lat,Lon Distance(km) Time Diff (sec)
1 12/13/2016 18:34:25 -0.13,-135.27 0.00,-135.90 71.12 80
2 12/14/2016 18:11:20 -0.14,-135.26 -1.14,-130.91 495.94 67
3 12/16/2016 06:32:47 0.12,-135.23 0.07,-135.50 30.84 80
4 12/18/2016 18:31:00 -0.11,-135.17 -0.13,-135.06 12.79 80
5 12/21/2016 06:26:41 0.11,-135.12 0.22,-134.66 52.65 80
6 12/22/2016 18:48:13 -0.09,-135.08 0.86,-139.21 471.48 80
7 12/23/2016 18:24:54 -0.10,-135.06 -0.28,-134.22 94.83 80
8 12/25/2016 06:46:35 0.08,-135.02 -0.76,-138.82 432.10 80
9 12/26/2016 06:23:16
